Starlink 3820

operational
NORAD ID: 52364 Int'l Des: 2022-045 Owner: SPXS Country: US Constellation: starlink
LEOCIRCULAR

Über Starlink 3820

Beschreibung wird geladen...

Live-Position

3D-Globus wird geladen...

Nächste Überflüge

Höhenverlauf

Altitude vs Time

uPlot chart will show altitude changes over time

Zweizeiliger Elementsatz

1 52364U 22045AK 25307.98088021 .00001281 00000-0 98524-4 0 9990
2 52364 53.2178 33.3604 0001087 85.3041 274.8075 15.08854099196945
Epoch: 3. Nov. 2025 • Age: 10 hours

Aktueller Status

Höhe 541.0 km
Geschwindigkeit 7.60 km/s
Subsatellitenpunkt 30.51°N, 125.13°W
Startdatum 29. Apr. 2022
Alter 3.5 years
Typ internet

Technische Details

Klassifizierung Payload
Masse 297.00 kg
Trockenmasse 275.00 kg
Gesamtmasse 297.00 kg
Länge 0.20 m
Durchmesser 2.80 m
Spannweite 9.00 m
Form Box + pan
Hersteller SPXS
Bus-Typ Starlink
Phasenstatus In Orbit
Besitzer/Staat SPXS/US

Große Konstellationen

Loading constellations...